CINOVEC Weather Reports


time (UTC)temp
F
wind
direction
speed
knots
gust
knots
rain 1hr
in
rain 24hr
in
rain mn
in
humidity
%
barometer
mb
20260506091729 55 190 13.9 21.7 0.00 0.00 0.00 76
20260506081728 54 190 14.8 0.0 0.00 0.00 0.00 81
20260506071729 54 200 14.8 21.7 0.00 0.00 0.00 81
20260506061729 50 190 13.9 0.0 0.00 0.00 0.00 93
20260506041928 46 200 12.2 0.0 0.00 0.00 0.00 99
20260506031729 46 200 10.4 0.0 0.00 0.00 0.00 99
20260506021729 45 190 10.4 0.0 0.00 0.00 0.00 99
20260506011829 46 190 11.3 0.0 0.00 0.00 0.00 93
20260506001728 46 260 7.0 0.0 0.00 0.00 0.00 99
20260505231728 48 290 7.0 0.0 0.00 0.00 0.00 93
20260505221727 48 220 12.2 0.0 0.00 0.00 0.00 93
20260505211745 48 220 13.9 33.0 0.00 0.00 0.00 93
20260505201744 52 10 10.4 0.0 0.00 0.00 0.00 99
20260505191745 52 10 11.3 0.0 0.00 0.00 0.00 99
20260505181730 54 360 11.3 0.0 0.00 0.00 0.00 93
20260505171729 54 350 10.4 15.6 0.00 0.00 0.00 93
20260505161828 55 350 10.4 0.0 0.00 0.00 0.00 93
20260505151727 57 350 11.3 0.0 0.00 0.00 0.00 82
20260505121728 61 10 11.3 0.0 0.00 0.00 0.00 67
20260505111729 61 350 8.7 0.0 0.00 0.00 0.00 67
20260505101729 59 350 8.7 0.0 0.00 0.00 0.00 72